{"data":{"norad_id":43277,"intl_designator":"2018-034C","name":"YAOGAN-31 01C","alt_names":[],"object_type":"PAYLOAD","status":"ACTIVE","operator":null,"country":"PRC","launch_date":"2018-04-10","launch_site_code":"JSC","launch_vehicle":null,"mission":null,"orbit_class":"UNKNOWN","rcs_meters":null,"size_class":null,"mass_kg":null,"dimensions":null,"purposes":[],"wikipedia_slug":null,"has_3d_model":false,"image_url":null,"decayed_at":null,"tle_current":{"epoch":"2026-05-25T04:11:44.056608Z","epoch_age_seconds":57174,"freshness":"FRESH","line1":"1 43277U 18034C   26145.17481547 -.00000154  00000+0 -84904-4 0  9994","line2":"2 43277  63.3938 149.8599 0273535   7.0300 353.4441 13.45440146399149","mean_motion":13.45440146,"eccentricity":0.0273535,"inclination_deg":63.3938,"raan_deg":149.8599,"arg_perigee_deg":7.03,"mean_anomaly_deg":353.4441,"bstar":-8.4904e-5,"rev_number":39914,"period_min":107.02817247435,"perigee_km":884.82794734518,"apogee_km":1293.3371265531,"semimajor_km":7467.2195369491,"source":"CELESTRAK","updated_at":"2026-05-25T13:37:55.824812Z"}}}